• Join FlightAware (Why Join?)
  • Login
  • US Flag 
02:48PM EDT


 

Airport Tracker/Info


-or-


 

Live Flight TrackerFlight Track Log ✈ CTL312 ✈ 19-Apr-2013 ✈ KBKL - KPTK

Flight Track Log - Related Links

Times and Time Zones

All times are in EDT time to prevent confusion due to time zone crossing. See the CTL312 flight status page for this flight to view local times or setup timezone preferences in your user account.

Time Position Orientation Groundspeed Altitude Reporting Facility
EDT Latitude Longitude Course Direction KTS MPH feet Rate Location/Type
09:40PM 41.5128 -81.6894 308° West 97 112 900  Level Cleveland Center
09:41PM 41.5292 -81.7175 308° West 125 144 1,700 840 Climbing Cleveland Center
09:42PM 41.5558 -81.7514 316° Northwest 151 174 2,400 600 Climbing Cleveland Center
09:43PM 41.5764 -81.7933 303° West 132 152 3,000 300 Climbing Cleveland Center
09:44PM 41.5903 -81.8436 290° West 147 169 3,100  Climbing Cleveland Center
09:45PM 41.6106 -81.8939 298° West 145 167 3,000 -60 Descending Cleveland Center
09:46PM 41.6247 -81.9414 292° West 139 160 3,000  Level Cleveland Center
09:47PM 41.6428 -81.9947 294° West 137 158 3,000  Level Cleveland Center
09:48PM 41.6589 -82.0422 294° West 141 162 3,000  Level Cleveland Center
09:49PM 41.6708 -82.0842 291° West 139 160 3,000  Level Cleveland Center
09:50PM 41.6869 -82.1319 294° West 139 160 3,000  Level Cleveland Center
09:51PM 41.7008 -82.1794 291° West 137 158 3,000  Level Cleveland Center
09:52PM 41.7167 -82.2272 294° West 136 157 3,000  Level Cleveland Center
09:53PM 41.7328 -82.2722 296° West 138 159 3,000 -60 Level Cleveland Center
09:55PM 41.7528 -82.3311 294° West 134 154 2,900 -60 Descending Cleveland Center
09:56PM 41.7667 -82.3789 291° West 133 153 2,900  Level Cleveland Center
09:58PM 41.7944 -82.4658 293° West 131 151 2,900 60 Level Cleveland Center
09:59PM 41.8083 -82.5136 291° West 130 150 3,100 60 Climbing Cleveland Center
10:00PM 41.8200 -82.5558 290° West 129 148 3,100 -60 Level Cleveland Center
10:01PM 41.8339 -82.6008 293° West 130 150 3,000  Descending Cleveland Center
10:02PM 41.8519 -82.6378 303° West 139 160 3,100  Climbing Cleveland Center
10:03PM 41.8911 -82.6669 331° Northwest 150 173 3,100  Level Cleveland Center
10:04PM 41.9261 -82.6903 334° Northwest 151 174 3,100  Level Cleveland Center
10:05PM 41.9650 -82.7194 331° Northwest 152 175 3,100  Level Cleveland Center
10:06PM 42.0083 -82.7489 333° Northwest 154 177 3,100  Level Cleveland Center
10:07PM 42.0453 -82.7753 332° Northwest 158 182 3,100  Level Cleveland Center
10:08PM 42.0822 -82.8044 330° Northwest 156 180 3,100 -60 Level Cleveland Center
10:08PM 42.1153 -82.8253 335° Northwest 154 177 3,000  Descending Cleveland Center
10:10PM 42.1583 -82.8575 331° Northwest 152 175 3,100  Climbing Cleveland Center
10:11PM 42.2036 -82.8900 332° Northwest 156 180 3,000 -60 Descending Cleveland Center
10:12PM 42.2406 -82.9194 329° Northwest 155 178 3,000  Level Cleveland Center
10:13PM 42.2753 -82.9461 330° Northwest 158 182 3,100  Climbing Cleveland Center
10:14PM 42.3144 -82.9728 333° Northwest 156 180 3,100  Level Cleveland Center
10:15PM 42.3597 -83.0053 332° Northwest 157 181 3,100  Level Cleveland Center
10:16PM 42.3861 -83.0289 327° Northwest 158 182 3,100  Level Cleveland Center
10:17PM 42.4294 -83.0614 331° Northwest 161 185 3,100 -60 Level Cleveland Center
10:18PM 42.4722 -83.0969 328° Northwest 158 182 3,000 -180 Descending Cleveland Center
10:19PM 42.4986 -83.1292 318° Northwest 155 178 2,800 -180 Descending Cleveland Center
10:20PM 42.5247 -83.1781 306° West 157 181 2,700 -120 Descending Cleveland Center
10:21PM 42.5550 -83.2158 317° Northwest 152 175 2,600 -60 Descending Cleveland Center
10:22PM 42.5833 -83.2564 314° West 151 174 2,600 -120 Level Cleveland Center
10:23PM 42.6175 -83.3089 311° West 150 173 2,400 -240 Descending Cleveland Center
10:24PM 42.6436 -83.3494 311° West 138 159 2,200 -420 Descending Cleveland Center
10:25PM 42.6639 -83.3758 316° Northwest 121 139 1,700 -660 Descending Cleveland Center
10:27PM 42.6500 -83.4167 304° West  Level FlightAware Approximate
10:34PM 42.6656 -83.4205 304° West  Level Estimated
10:35PM 42.6656 -83.4205 304° West  Level Estimated